Tracking 18851 objects as of 25-Nov-2017
HD Live streaming from Space Station
objects crossing your sky now

FENGYUN 1C DEB

Track FENGYUN 1C DEB now!
10-day predictions


NORAD ID: 37699
Int'l Code: 1999-025ELQ
Perigee: 835.6 km
Apogee: 1,020.0 km
Inclination: 98.0 °
Period: 103.4 minutes
Semi major axis: 7298 km
RCS: 0.0139 m2 (small)
Launch date: May 10, 1999
Source: People's Republic of China (PRC)
Launch site: Taiyaun Space Center, China (TSC)

Note: This is SATELLITE DEBRIS
aabbcc
Your satellite tracking list
Your tracking list is empty




NASA's NSSDC Master Catalog

Two Line Element Set (TLE):
1 37699U 99025ELQ 17326.38402003  .00000688  00000-0  52908-3 0  9997
2 37699  97.9733 163.6149 0126285 277.8483 203.4237 13.92277359408435
Source of the keplerian elements: AFSPC